date,time,SUV Intensity [MED/Hr],UV Index,Daily total [MED],Since Last [MED]
08/10/2023,00:02:08,0.000,0.0,0.0,0.0
08/10/2023,00:03:08,-0.001,0.0,0.0,0.0
08/10/2023,00:04:07,0.001,0.0,0.0,0.0
08/10/2023,00:05:08,0.000,0.0,0.0,0.0
08/10/2023,00:06:07,0.001,0.0,0.0,0.0
08/10/2023,00:07:08,0.001,0.0,0.0,0.0
08/10/2023,00:08:08,0.000,0.0,0.0,0.0
08/10/2023,00:09:08,0.000,0.0,0.0,0.0
08/10/2023,00:10:07,0.000,0.0,0.0,0.0
08/10/2023,00:11:07,-0.001,0.0,0.0,0.0
08/10/2023,00:12:07,0.000,0.0,0.0,0.0
08/10/2023,00:13:08,0.000,0.0,0.0,0.0
08/10/2023,00:14:07,0.001,0.0,0.0,0.0
08/10/2023,00:15:08,-0.001,0.0,0.0,0.0
08/10/2023,00:16:08,0.000,0.0,0.0,0.0
08/10/2023,00:17:08,0.000,0.0,0.0,0.0
08/10/2023,00:18:07,-0.001,0.0,0.0,0.0
08/10/2023,00:19:08,0.000,0.0,0.0,0.0
08/10/2023,00:20:08,0.000,0.0,0.0,0.0
08/10/2023,00:21:07,0.000,0.0,0.0,0.0
08/10/2023,00:22:07,0.001,0.0,0.0,0.0
08/10/2023,00:23:07,0.001,0.0,0.0,0.0
08/10/2023,00:24:07,0.000,0.0,0.0,0.0
08/10/2023,00:25:07,0.000,0.0,0.0,0.0
08/10/2023,00:26:08,0.000,0.0,0.0,0.0
08/10/2023,00:27:08,0.000,0.0,0.0,0.0
08/10/2023,00:28:07,0.000,0.0,0.0,0.0
08/10/2023,00:29:08,0.000,0.0,0.0,0.0
08/10/2023,00:30:07,0.001,0.0,0.0,0.0
08/10/2023,00:31:08,0.001,0.0,0.0,0.0
08/10/2023,00:32:08,0.001,0.0,0.0,0.0
08/10/2023,00:33:07,-0.001,0.0,0.0,0.0
08/10/2023,00:34:08,0.000,0.0,0.0,0.0
08/10/2023,00:35:08,0.000,0.0,0.0,0.0
08/10/2023,00:36:08,0.001,0.0,0.0,0.0
08/10/2023,00:37:07,0.000,0.0,0.0,0.0
08/10/2023,00:38:07,0.000,0.0,0.0,0.0
08/10/2023,00:39:08,0.000,0.0,0.0,0.0
08/10/2023,00:40:08,0.001,0.0,0.0,0.0
08/10/2023,00:41:07,0.001,0.0,0.0,0.0
08/10/2023,00:42:08,0.000,0.0,0.0,0.0
08/10/2023,00:43:08,0.000,0.0,0.0,0.0
08/10/2023,00:44:07,0.001,0.0,0.0,0.0
08/10/2023,00:45:07,0.000,0.0,0.0,0.0
08/10/2023,00:46:07,0.001,0.0,0.0,0.0
08/10/2023,00:47:08,0.000,0.0,0.0,0.0
08/10/2023,00:48:08,0.000,0.0,0.0,0.0
08/10/2023,00:49:07,0.000,0.0,0.0,0.0
08/10/2023,00:50:08,0.001,0.0,0.0,0.0
08/10/2023,00:51:07,0.000,0.0,0.0,0.0
08/10/2023,00:52:08,-0.000,0.0,0.0,0.0
08/10/2023,00:53:08,0.001,0.0,0.0,0.0
08/10/2023,00:54:08,0.001,0.0,0.0,0.0
08/10/2023,00:55:07,0.001,0.0,0.0,0.0
08/10/2023,00:56:08,0.001,0.0,0.0,0.0
08/10/2023,00:57:07,0.001,0.0,0.0,0.0
08/10/2023,00:58:08,0.001,0.0,0.0,0.0
08/10/2023,00:59:08,0.001,0.0,0.0,0.0
08/10/2023,01:00:07,0.001,0.0,0.0,0.0
08/10/2023,01:01:07,0.001,0.0,0.0,0.0
08/10/2023,01:02:08,0.001,0.0,0.0,0.0
08/10/2023,01:03:07,0.001,0.0,0.0,0.0
08/10/2023,01:04:07,0.001,0.0,0.0,0.0
08/10/2023,01:05:08,0.001,0.0,0.0,0.0
08/10/2023,01:06:07,0.001,0.0,0.0,0.0
08/10/2023,01:07:08,0.001,0.0,0.0,0.0
08/10/2023,01:08:08,0.001,0.0,0.0,0.0
08/10/2023,01:09:07,0.001,0.0,0.0,0.0
08/10/2023,01:10:08,0.001,0.0,0.0,0.0
08/10/2023,01:11:08,0.001,0.0,0.0,0.0
08/10/2023,01:12:07,0.001,0.0,0.0,0.0
08/10/2023,01:13:08,0.001,0.0,0.0,0.0
08/10/2023,01:14:08,0.001,0.0,0.0,0.0
08/10/2023,01:15:07,0.001,0.0,0.0,0.0
08/10/2023,01:16:08,0.000,0.0,0.0,0.0
08/10/2023,01:17:08,0.001,0.0,0.0,0.0
08/10/2023,01:18:07,0.001,0.0,0.0,0.0
08/10/2023,01:19:07,0.001,0.0,0.0,0.0
08/10/2023,01:20:08,0.001,0.0,0.0,0.0
08/10/2023,01:21:08,0.001,0.0,0.0,0.0
08/10/2023,01:22:08,0.001,0.0,0.0,0.0
08/10/2023,01:23:07,0.001,0.0,0.0,0.0
08/10/2023,01:24:08,0.001,0.0,0.0,0.0
08/10/2023,01:25:08,0.001,0.0,0.0,0.0
08/10/2023,01:26:08,0.001,0.0,0.0,0.0
08/10/2023,01:27:07,0.001,0.0,0.0,0.0
08/10/2023,01:28:08,0.001,0.0,0.0,0.0
08/10/2023,01:29:08,0.001,0.0,0.0,0.0
08/10/2023,01:30:08,0.001,0.0,0.0,0.0
08/10/2023,01:31:07,0.001,0.0,0.0,0.0
08/10/2023,01:32:08,0.001,0.0,0.0,0.0
08/10/2023,01:33:07,0.001,0.0,0.0,0.0
08/10/2023,01:34:08,0.001,0.0,0.0,0.0
08/10/2023,01:35:07,0.001,0.0,0.0,0.0
08/10/2023,01:36:08,0.001,0.0,0.0,0.0
08/10/2023,01:37:07,0.001,0.0,0.0,0.0
08/10/2023,01:38:08,0.001,0.0,0.0,0.0
08/10/2023,01:39:07,0.001,0.0,0.0,0.0
08/10/2023,01:40:07,0.001,0.0,0.0,0.0
08/10/2023,01:41:07,0.001,0.0,0.0,0.0
08/10/2023,01:42:07,0.001,0.0,0.0,0.0
08/10/2023,01:43:08,0.001,0.0,0.0,0.0
08/10/2023,01:44:08,0.001,0.0,0.0,0.0
08/10/2023,01:45:08,0.001,0.0,0.0,0.0
08/10/2023,01:46:08,0.001,0.0,0.0,0.0
08/10/2023,01:47:07,0.001,0.0,0.0,0.0
08/10/2023,01:48:08,0.001,0.0,0.0,0.0
08/10/2023,01:49:08,0.001,0.0,0.0,0.0
08/10/2023,01:50:07,0.001,0.0,0.0,0.0
08/10/2023,01:51:07,0.001,0.0,0.0,0.0
08/10/2023,01:52:08,0.001,0.0,0.0,0.0
08/10/2023,01:53:08,0.001,0.0,0.0,0.0
08/10/2023,01:54:07,0.001,0.0,0.0,0.0
08/10/2023,01:55:08,0.001,0.0,0.0,0.0
08/10/2023,01:56:08,0.001,0.0,0.0,0.0
08/10/2023,01:57:07,0.001,0.0,0.0,0.0
08/10/2023,01:58:08,0.001,0.0,0.0,0.0
08/10/2023,01:59:07,0.001,0.0,0.0,0.0
08/10/2023,02:00:08,0.001,0.0,0.0,0.0
08/10/2023,02:01:09,0.001,0.0,0.0,0.0
08/10/2023,02:02:09,0.001,0.0,0.0,0.0
08/10/2023,02:03:08,0.001,0.0,0.0,0.0
08/10/2023,02:04:07,0.001,0.0,0.0,0.0
08/10/2023,02:05:08,0.001,0.0,0.0,0.0
08/10/2023,02:06:08,0.001,0.0,0.0,0.0
08/10/2023,02:07:07,0.001,0.0,0.0,0.0
08/10/2023,02:08:08,0.001,0.0,0.0,0.0
08/10/2023,02:09:09,0.001,0.0,0.0,0.0
08/10/2023,02:10:07,0.001,0.0,0.0,0.0
08/10/2023,02:11:07,0.001,0.0,0.0,0.0
08/10/2023,02:12:08,0.001,0.0,0.0,0.0
08/10/2023,02:13:08,0.002,0.0,0.0,0.0
08/10/2023,02:14:07,0.001,0.0,0.0,0.0
08/10/2023,02:15:07,0.002,0.0,0.0,0.0
08/10/2023,02:16:08,0.001,0.0,0.0,0.0
08/10/2023,02:17:08,0.001,0.0,0.0,0.0
08/10/2023,02:18:08,0.001,0.0,0.0,0.0
08/10/2023,02:19:08,0.001,0.0,0.0,0.0
08/10/2023,02:20:07,0.001,0.0,0.0,0.0
08/10/2023,02:21:08,0.001,0.0,0.0,0.0
08/10/2023,02:22:07,0.001,0.0,0.0,0.0
08/10/2023,02:23:08,0.001,0.0,0.0,0.0
08/10/2023,02:24:08,0.001,0.0,0.0,0.0
08/10/2023,02:25:08,0.001,0.0,0.0,0.0
08/10/2023,02:26:07,0.001,0.0,0.0,0.0
08/10/2023,02:27:08,0.001,0.0,0.0,0.0
08/10/2023,02:28:08,0.001,0.0,0.0,0.0
08/10/2023,02:29:08,0.001,0.0,0.0,0.0
08/10/2023,02:30:07,0.001,0.0,0.0,0.0
08/10/2023,02:31:08,0.001,0.0,0.0,0.0
08/10/2023,02:32:08,0.001,0.0,0.0,0.0
08/10/2023,02:33:08,0.001,0.0,0.0,0.0
08/10/2023,02:34:07,0.001,0.0,0.0,0.0
08/10/2023,02:35:08,0.001,0.0,0.0,0.0
08/10/2023,02:36:11,0.001,0.0,0.0,0.0
08/10/2023,02:37:08,0.001,0.0,0.0,0.0
08/10/2023,02:38:08,0.001,0.0,0.0,0.0
08/10/2023,02:39:08,0.001,0.0,0.0,0.0
08/10/2023,02:40:07,0.001,0.0,0.0,0.0
08/10/2023,02:41:07,0.001,0.0,0.0,0.0
08/10/2023,02:42:08,0.001,0.0,0.0,0.0
08/10/2023,02:43:08,0.001,0.0,0.0,0.0
08/10/2023,02:44:08,0.001,0.0,0.0,0.0
08/10/2023,02:45:08,0.001,0.0,0.0,0.0
08/10/2023,02:46:07,0.001,0.0,0.0,0.0
08/10/2023,02:47:08,0.001,0.0,0.0,0.0
08/10/2023,02:48:07,0.001,0.0,0.0,0.0
08/10/2023,02:49:08,0.001,0.0,0.0,0.0
08/10/2023,02:50:08,0.001,0.0,0.0,0.0
08/10/2023,02:51:08,0.001,0.0,0.0,0.0
08/10/2023,02:52:08,0.001,0.0,0.0,0.0
08/10/2023,02:53:07,0.001,0.0,0.0,0.0
08/10/2023,02:54:07,0.001,0.0,0.0,0.0
08/10/2023,02:55:07,0.001,0.0,0.0,0.0
08/10/2023,02:56:07,0.001,0.0,0.0,0.0
08/10/2023,02:57:08,0.001,0.0,0.0,0.0
08/10/2023,02:58:08,0.001,0.0,0.0,0.0
08/10/2023,02:59:07,0.002,0.0,0.0,0.0
08/10/2023,03:00:08,0.001,0.0,0.0,0.0
08/10/2023,03:01:07,0.001,0.0,0.0,0.0
08/10/2023,03:02:08,0.001,0.0,0.0,0.0
08/10/2023,03:03:08,0.001,0.0,0.0,0.0
08/10/2023,03:04:08,0.001,0.0,0.0,0.0
08/10/2023,03:05:08,0.001,0.0,0.0,0.0
08/10/2023,03:06:08,0.001,0.0,0.0,0.0
08/10/2023,03:07:08,0.001,0.0,0.0,0.0
08/10/2023,03:08:08,0.001,0.0,0.0,0.0
08/10/2023,03:09:08,0.001,0.0,0.0,0.0
08/10/2023,03:10:08,0.001,0.0,0.0,0.0
08/10/2023,03:11:07,0.001,0.0,0.0,0.0
08/10/2023,03:12:08,0.001,0.0,0.0,0.0
08/10/2023,03:13:08,0.002,0.0,0.0,0.0
08/10/2023,03:14:08,0.001,0.0,0.0,0.0
08/10/2023,03:15:08,0.001,0.0,0.0,0.0
08/10/2023,03:16:08,0.001,0.0,0.0,0.0
08/10/2023,03:17:07,0.001,0.0,0.0,0.0
08/10/2023,03:18:07,0.001,0.0,0.0,0.0
08/10/2023,03:19:08,0.001,0.0,0.0,0.0
08/10/2023,03:20:08,0.001,0.0,0.0,0.0
08/10/2023,03:21:08,0.001,0.0,0.0,0.0
08/10/2023,03:22:08,0.001,0.0,0.0,0.0
08/10/2023,03:23:07,0.001,0.0,0.0,0.0
08/10/2023,03:24:08,0.001,0.0,0.0,0.0
08/10/2023,03:25:08,0.001,0.0,0.0,0.0
08/10/2023,03:26:08,0.002,0.0,0.0,0.0
08/10/2023,03:27:08,0.001,0.0,0.0,0.0
08/10/2023,03:28:07,0.001,0.0,0.0,0.0
08/10/2023,03:29:07,0.001,0.0,0.0,0.0
08/10/2023,03:30:08,0.001,0.0,0.0,0.0
08/10/2023,03:31:08,0.001,0.0,0.0,0.0
08/10/2023,03:32:07,0.001,0.0,0.0,0.0
08/10/2023,03:33:08,0.001,0.0,0.0,0.0
08/10/2023,03:34:08,0.001,0.0,0.0,0.0
08/10/2023,03:35:07,0.001,0.0,0.0,0.0
08/10/2023,03:36:08,0.001,0.0,0.0,0.0
08/10/2023,03:37:08,0.001,0.0,0.0,0.0
08/10/2023,03:38:08,0.001,0.0,0.0,0.0
08/10/2023,03:39:08,0.001,0.0,0.0,0.0
08/10/2023,03:40:08,0.001,0.0,0.0,0.0
08/10/2023,03:41:07,0.001,0.0,0.0,0.0
08/10/2023,03:42:08,0.001,0.0,0.0,0.0
08/10/2023,03:43:07,0.001,0.0,0.0,0.0
08/10/2023,03:44:07,0.001,0.0,0.0,0.0
08/10/2023,03:45:08,0.001,0.0,0.0,0.0
08/10/2023,03:46:08,0.001,0.0,0.0,0.0
08/10/2023,03:47:07,0.001,0.0,0.0,0.0
08/10/2023,03:48:08,0.001,0.0,0.0,0.0
08/10/2023,03:49:08,0.001,0.0,0.0,0.0
08/10/2023,03:50:08,0.001,0.0,0.0,0.0
08/10/2023,03:51:08,0.001,0.0,0.0,0.0
08/10/2023,03:52:08,0.001,0.0,0.0,0.0
08/10/2023,03:53:08,0.001,0.0,0.0,0.0
08/10/2023,03:54:08,0.001,0.0,0.0,0.0
08/10/2023,03:55:07,0.001,0.0,0.0,0.0
08/10/2023,03:56:08,0.001,0.0,0.0,0.0
08/10/2023,03:57:07,0.001,0.0,0.0,0.0
08/10/2023,03:58:08,0.001,0.0,0.0,0.0
08/10/2023,03:59:08,0.001,0.0,0.0,0.0
08/10/2023,04:00:07,0.001,0.0,0.0,0.0
08/10/2023,04:01:08,0.002,0.0,0.0,0.0
08/10/2023,04:02:08,0.001,0.0,0.0,0.0
08/10/2023,04:03:08,0.001,0.0,0.0,0.0
08/10/2023,04:04:08,0.001,0.0,0.0,0.0
08/10/2023,04:05:08,0.001,0.0,0.0,0.0
08/10/2023,04:06:08,0.001,0.0,0.0,0.0
08/10/2023,04:07:08,0.001,0.0,0.0,0.0
08/10/2023,04:08:08,0.001,0.0,0.0,0.0
08/10/2023,04:09:08,0.002,0.0,0.0,0.0
08/10/2023,04:10:08,0.001,0.0,0.0,0.0
08/10/2023,04:11:08,0.001,0.0,0.0,0.0
08/10/2023,04:12:08,0.001,0.0,0.0,0.0
08/10/2023,04:13:08,0.001,0.0,0.0,0.0
08/10/2023,04:14:08,0.001,0.0,0.0,0.0
08/10/2023,04:15:08,0.001,0.0,0.0,0.0
08/10/2023,04:16:08,0.001,0.0,0.0,0.0
08/10/2023,04:17:08,0.001,0.0,0.0,0.0
08/10/2023,04:18:08,0.001,0.0,0.0,0.0
08/10/2023,04:19:08,0.001,0.0,0.0,0.0
08/10/2023,04:20:09,0.001,0.0,0.0,0.0
08/10/2023,04:21:08,0.001,0.0,0.0,0.0
08/10/2023,04:22:08,0.001,0.0,0.0,0.0
08/10/2023,04:23:08,0.002,0.0,0.0,0.0
08/10/2023,04:24:07,0.001,0.0,0.0,0.0
08/10/2023,04:25:08,0.001,0.0,0.0,0.0
08/10/2023,04:26:08,0.001,0.0,0.0,0.0
08/10/2023,04:27:08,0.001,0.0,0.0,0.0
08/10/2023,04:28:08,0.001,0.0,0.0,0.0
08/10/2023,04:29:08,0.001,0.0,0.0,0.0
08/10/2023,04:30:07,0.001,0.0,0.0,0.0
08/10/2023,04:31:08,0.001,0.0,0.0,0.0
08/10/2023,04:32:07,0.001,0.0,0.0,0.0
08/10/2023,04:33:08,0.001,0.0,0.0,0.0
08/10/2023,04:34:08,0.001,0.0,0.0,0.0
08/10/2023,04:35:07,0.001,0.0,0.0,0.0
08/10/2023,04:36:08,0.001,0.0,0.0,0.0
08/10/2023,04:37:07,0.001,0.0,0.0,0.0
08/10/2023,04:38:08,0.001,0.0,0.0,0.0
08/10/2023,04:39:07,0.001,0.0,0.0,0.0
08/10/2023,04:40:08,0.001,0.0,0.0,0.0
08/10/2023,04:41:08,0.001,0.0,0.0,0.0
08/10/2023,04:42:08,0.001,0.0,0.0,0.0
08/10/2023,04:43:08,0.001,0.0,0.0,0.0
08/10/2023,04:44:08,0.001,0.0,0.0,0.0
08/10/2023,04:45:07,0.001,0.0,0.0,0.0
08/10/2023,04:46:30,0.001,0.0,0.0,0.0
08/10/2023,04:47:07,0.001,0.0,0.0,0.0
08/10/2023,04:48:08,0.001,0.0,0.0,0.0
08/10/2023,04:49:08,0.001,0.0,0.0,0.0
08/10/2023,04:50:08,0.001,0.0,0.0,0.0
08/10/2023,04:51:08,0.001,0.0,0.0,0.0
08/10/2023,04:52:07,0.001,0.0,0.0,0.0
08/10/2023,04:53:08,0.001,0.0,0.0,0.0
08/10/2023,04:54:08,0.001,0.0,0.0,0.0
08/10/2023,04:55:07,0.001,0.0,0.0,0.0
08/10/2023,04:56:08,0.001,0.0,0.0,0.0
08/10/2023,04:57:08,0.001,0.0,0.0,0.0
08/10/2023,04:58:08,0.000,0.0,0.0,0.0
08/10/2023,04:59:08,0.001,0.0,0.0,0.0
08/10/2023,05:00:08,0.001,0.0,0.0,0.0
08/10/2023,05:01:08,0.001,0.0,0.0,0.0
08/10/2023,05:02:08,0.001,0.0,0.0,0.0
08/10/2023,05:03:07,0.001,0.0,0.0,0.0
08/10/2023,05:04:08,0.002,0.0,0.0,0.0
08/10/2023,05:05:07,0.001,0.0,0.0,0.0
08/10/2023,05:06:08,0.001,0.0,0.0,0.0
08/10/2023,05:07:08,0.001,0.0,0.0,0.0
08/10/2023,05:08:08,0.001,0.0,0.0,0.0
08/10/2023,05:09:08,0.001,0.0,0.0,0.0
08/10/2023,05:10:08,0.001,0.0,0.0,0.0
08/10/2023,05:11:07,0.001,0.0,0.0,0.0
08/10/2023,05:12:08,0.001,0.0,0.0,0.0
08/10/2023,05:13:08,0.001,0.0,0.0,0.0
08/10/2023,05:14:30,0.001,0.0,0.0,0.0
08/10/2023,05:15:08,0.001,0.0,0.0,0.0
08/10/2023,05:16:08,0.001,0.0,0.0,0.0
08/10/2023,05:17:08,0.001,0.0,0.0,0.0
08/10/2023,05:18:08,0.001,0.0,0.0,0.0
08/10/2023,05:19:07,0.001,0.0,0.0,0.0
08/10/2023,05:20:08,0.001,0.0,0.0,0.0
08/10/2023,05:21:08,0.001,0.0,0.0,0.0
08/10/2023,05:22:08,0.001,0.0,0.0,0.0
08/10/2023,05:23:08,0.002,0.0,0.0,0.0
08/10/2023,05:24:08,0.001,0.0,0.0,0.0
08/10/2023,05:25:08,0.001,0.0,0.0,0.0
08/10/2023,05:26:08,0.001,0.0,0.0,0.0
08/10/2023,05:27:07,0.001,0.0,0.0,0.0
08/10/2023,05:28:09,0.001,0.0,0.0,0.0
08/10/2023,05:29:08,0.001,0.0,0.0,0.0
08/10/2023,05:30:08,0.001,0.0,0.0,0.0
08/10/2023,05:31:08,0.001,0.0,0.0,0.0
08/10/2023,05:32:08,0.001,0.0,0.0,0.0
08/10/2023,05:33:08,0.001,0.0,0.0,0.0
08/10/2023,05:34:08,0.001,0.0,0.0,0.0
08/10/2023,05:35:08,0.001,0.0,0.0,0.0
08/10/2023,05:36:08,0.001,0.0,0.0,0.0
08/10/2023,05:37:08,0.002,0.0,0.0,0.0
08/10/2023,05:38:08,0.001,0.0,0.0,0.0
08/10/2023,05:39:08,0.001,0.0,0.0,0.0
08/10/2023,05:40:08,0.001,0.0,0.0,0.0
08/10/2023,05:41:08,0.001,0.0,0.0,0.0
08/10/2023,05:42:08,0.002,0.0,0.0,0.0
08/10/2023,05:43:08,0.001,0.0,0.0,0.0
08/10/2023,05:44:08,0.001,0.0,0.0,0.0
08/10/2023,05:45:08,0.001,0.0,0.0,0.0
08/10/2023,05:46:08,0.001,0.0,0.0,0.0
08/10/2023,05:47:07,0.001,0.0,0.0,0.0
08/10/2023,05:48:08,0.001,0.0,0.0,0.0
08/10/2023,05:49:08,0.001,0.0,0.0,0.0
08/10/2023,05:50:08,0.001,0.0,0.0,0.0
08/10/2023,05:51:08,0.001,0.0,0.0,0.0
08/10/2023,05:52:07,0.001,0.0,0.0,0.0
08/10/2023,05:53:08,0.001,0.0,0.0,0.0
08/10/2023,05:54:08,0.001,0.0,0.0,0.0
08/10/2023,05:55:08,0.001,0.0,0.0,0.0
08/10/2023,05:56:08,0.001,0.0,0.0,0.0
08/10/2023,05:57:08,0.001,0.0,0.0,0.0
08/10/2023,05:58:08,0.001,0.0,0.0,0.0
08/10/2023,05:59:08,0.001,0.0,0.0,0.0
08/10/2023,06:00:08,0.002,0.0,0.0,0.0
08/10/2023,06:01:08,0.001,0.0,0.0,0.0
08/10/2023,06:02:08,0.002,0.0,0.0,0.0
08/10/2023,06:03:08,0.002,0.0,0.0,0.0
08/10/2023,06:04:08,0.002,0.0,0.0,0.0
08/10/2023,06:05:07,0.002,0.0,0.0,0.0
08/10/2023,06:06:08,0.002,0.0,0.0,0.0
08/10/2023,06:07:08,0.002,0.0,0.0,0.0
08/10/2023,06:08:08,0.001,0.0,0.0,0.0
08/10/2023,06:09:08,0.002,0.0,0.0,0.0
08/10/2023,06:10:08,0.002,0.0,0.0,0.0
08/10/2023,06:11:08,0.002,0.0,0.0,0.0
08/10/2023,06:12:08,0.002,0.0,0.0,0.0
08/10/2023,06:13:08,0.002,0.0,0.0,0.0
08/10/2023,06:14:08,0.004,0.0,0.0,0.0
08/10/2023,06:15:08,0.002,0.0,0.0,0.0
08/10/2023,06:16:08,0.003,0.0,0.0,0.0
08/10/2023,06:17:08,0.003,0.0,0.0,0.0
08/10/2023,06:18:08,0.003,0.0,0.0,0.0
08/10/2023,06:19:08,0.003,0.0,0.0,0.0
08/10/2023,06:20:08,0.003,0.0,0.0,0.0
08/10/2023,06:21:08,0.005,0.0,0.0,0.0
08/10/2023,06:22:08,0.004,0.0,0.0,0.0
08/10/2023,06:23:08,0.004,0.0,0.0,0.0
08/10/2023,06:24:08,0.004,0.0,0.0,0.0
08/10/2023,06:25:08,0.005,0.0,0.0,0.0
08/10/2023,06:26:08,0.005,0.0,0.0,0.0
08/10/2023,06:27:08,0.006,0.0,0.0,0.0
08/10/2023,06:28:08,0.006,0.0,0.0,0.0
08/10/2023,06:29:08,0.006,0.0,0.0,0.0
08/10/2023,06:30:08,0.005,0.0,0.0,0.0
08/10/2023,06:31:08,0.006,0.0,0.0,0.0
08/10/2023,06:32:09,0.007,0.0,0.0,0.0
08/10/2023,06:33:08,0.007,0.0,0.0,0.0
08/10/2023,06:34:08,0.007,0.0,0.001,0.001
08/10/2023,06:35:08,0.008,0.0,0.001,0.0
08/10/2023,06:36:08,0.008,0.0,0.001,0.0
08/10/2023,06:37:08,0.009,0.0,0.001,0.0
08/10/2023,06:38:08,0.009,0.0,0.001,0.0
08/10/2023,06:39:08,0.009,0.0,0.001,0.0
08/10/2023,06:40:08,0.010,0.0,0.001,0.0
08/10/2023,06:41:08,0.011,0.0,0.002,0.001
08/10/2023,06:42:08,0.010,0.0,0.002,0.0
08/10/2023,06:43:09,0.010,0.0,0.002,0.0
08/10/2023,06:44:08,0.013,0.0,0.002,0.0
08/10/2023,06:45:08,0.012,0.0,0.002,0.0
08/10/2023,06:46:08,0.013,0.0,0.003,0.001
08/10/2023,06:47:09,0.013,0.0,0.003,0.0
08/10/2023,06:48:08,0.014,0.0,0.003,0.0
08/10/2023,06:49:08,0.013,0.0,0.003,0.0
08/10/2023,06:50:08,0.015,0.0,0.003,0.0
08/10/2023,06:51:08,0.016,0.0,0.004,0.001
08/10/2023,06:52:08,0.017,0.0,0.004,0.0
08/10/2023,06:53:09,0.017,0.0,0.004,0.0
08/10/2023,06:54:08,0.017,0.0,0.005,0.001
08/10/2023,06:55:08,0.018,0.0,0.005,0.0
08/10/2023,06:56:08,0.019,0.0,0.005,0.0
08/10/2023,06:57:08,0.019,0.0,0.005,0.0
08/10/2023,06:58:08,0.019,0.0,0.006,0.001
08/10/2023,06:59:08,0.022,0.0,0.006,0.0
08/10/2023,07:00:09,0.022,0.0,0.006,0.0
08/10/2023,07:01:08,0.023,0.0,0.007,0.001
08/10/2023,07:02:08,0.023,0.0,0.007,0.0
08/10/2023,07:03:08,0.024,0.0,0.008,0.001
08/10/2023,07:04:09,0.025,0.0,0.008,0.0
08/10/2023,07:05:08,0.026,0.0,0.008,0.0
08/10/2023,07:06:08,0.027,0.0,0.009,0.001
08/10/2023,07:07:09,0.029,0.0,0.009,0.0
08/10/2023,07:08:08,0.029,0.0,0.01,0.001
08/10/2023,07:09:08,0.030,0.0,0.01,0.0
08/10/2023,07:10:08,0.031,0.0,0.011,0.001
08/10/2023,07:11:08,0.033,0.0,0.011,0.0
08/10/2023,07:12:08,0.033,0.0,0.012,0.001
08/10/2023,07:13:08,0.035,0.0,0.012,0.0
08/10/2023,07:14:08,0.036,0.0,0.013,0.001
08/10/2023,07:15:08,0.036,0.0,0.014,0.001
08/10/2023,07:16:09,0.038,0.0,0.014,0.0
08/10/2023,07:17:08,0.039,0.0,0.015,0.001
08/10/2023,07:18:08,0.040,0.0,0.016,0.001
08/10/2023,07:19:08,0.041,0.0,0.016,0.0
08/10/2023,07:20:08,0.043,0.0,0.017,0.001
08/10/2023,07:21:08,0.044,0.0,0.018,0.001
08/10/2023,07:22:08,0.045,0.0,0.018,0.0
08/10/2023,07:23:08,0.047,0.0,0.019,0.001
08/10/2023,07:24:09,0.049,0.0,0.02,0.001
08/10/2023,07:25:09,0.050,0.0,0.021,0.001
08/10/2023,07:26:09,0.051,0.0,0.022,0.001
08/10/2023,07:27:08,0.052,0.0,0.023,0.001
08/10/2023,07:28:09,0.055,0.0,0.023,0.0
08/10/2023,07:29:08,0.055,0.0,0.024,0.001
08/10/2023,07:30:08,0.057,0.0,0.025,0.001
08/10/2023,07:31:08,0.059,0.0,0.026,0.001
08/10/2023,07:32:10,0.060,0.0,0.027,0.001
08/10/2023,07:33:08,0.061,0.0,0.028,0.001
08/10/2023,07:34:08,0.064,0.0,0.029,0.001
08/10/2023,07:35:08,0.064,0.0,0.03,0.001
08/10/2023,07:36:08,0.066,0.0,0.031,0.001
08/10/2023,07:37:08,0.067,0.0,0.032,0.001
08/10/2023,07:38:08,0.070,0.0,0.034,0.002
08/10/2023,07:39:08,0.070,0.0,0.035,0.001
08/10/2023,07:40:08,0.072,0.0,0.036,0.001
08/10/2023,07:41:09,0.074,0.0,0.037,0.001
08/10/2023,07:42:08,0.075,0.0,0.038,0.001
08/10/2023,07:43:08,0.078,0.0,0.04,0.002
08/10/2023,07:44:09,0.078,0.0,0.041,0.001
08/10/2023,07:45:08,0.080,0.0,0.042,0.001
08/10/2023,07:46:08,0.083,0.0,0.044,0.002
08/10/2023,07:47:08,0.085,0.0,0.045,0.001
08/10/2023,07:48:08,0.086,0.0,0.046,0.001
08/10/2023,07:49:08,0.088,0.0,0.048,0.002
08/10/2023,07:50:08,0.090,0.0,0.049,0.001
08/10/2023,07:51:08,0.091,0.0,0.051,0.002
08/10/2023,07:52:08,0.094,0.0,0.052,0.001
08/10/2023,07:53:08,0.096,0.0,0.054,0.002
08/10/2023,07:54:08,0.098,0.0,0.056,0.002
08/10/2023,07:55:12,0.101,0.0,0.057,0.001
08/10/2023,07:56:09,0.103,0.0,0.059,0.002
08/10/2023,07:57:08,0.106,0.0,0.061,0.002
08/10/2023,07:58:08,0.108,0.0,0.063,0.002
08/10/2023,07:59:09,0.110,0.0,0.064,0.001
08/10/2023,08:00:08,0.112,0.0,0.066,0.002
08/10/2023,08:01:08,0.115,0.0,0.068,0.002
08/10/2023,08:02:08,0.119,0.0,0.07,0.002
08/10/2023,08:03:09,0.121,0.0,0.072,0.002
08/10/2023,08:04:08,0.124,0.0,0.074,0.002
08/10/2023,08:05:08,0.127,0.0,0.076,0.002
08/10/2023,08:06:09,0.130,0.0,0.078,0.002
08/10/2023,08:07:08,0.132,0.0,0.081,0.003
08/10/2023,08:08:09,0.135,0.0,0.083,0.002
08/10/2023,08:09:08,0.139,0.0,0.085,0.002
08/10/2023,08:10:08,0.141,0.0,0.087,0.002
08/10/2023,08:11:08,0.145,0.0,0.09,0.003
08/10/2023,08:12:08,0.148,0.0,0.092,0.002
08/10/2023,08:13:08,0.150,0.0,0.095,0.003
08/10/2023,08:14:09,0.156,0.0,0.097,0.002
08/10/2023,08:15:08,0.158,0.0,0.1,0.003
08/10/2023,08:16:08,0.163,0.0,0.103,0.003
08/10/2023,08:17:08,0.167,0.0,0.105,0.002
08/10/2023,08:18:08,0.170,0.0,0.108,0.003
08/10/2023,08:19:08,0.173,0.0,0.111,0.003
08/10/2023,08:20:08,0.177,0.0,0.114,0.003
08/10/2023,08:21:08,0.180,0.0,0.117,0.003
08/10/2023,08:22:08,0.183,0.0,0.12,0.003
08/10/2023,08:23:09,0.185,0.0,0.123,0.003
08/10/2023,08:24:08,0.187,0.0,0.126,0.003
08/10/2023,08:25:08,0.191,0.0,0.129,0.003
08/10/2023,08:26:08,0.196,0.0,0.132,0.003
08/10/2023,08:27:08,0.201,0.0,0.136,0.004
08/10/2023,08:28:09,0.199,0.0,0.139,0.003
08/10/2023,08:29:09,0.204,0.0,0.142,0.003
08/10/2023,08:30:08,0.212,0.0,0.146,0.004
08/10/2023,08:31:08,0.217,0.0,0.149,0.003
08/10/2023,08:32:08,0.218,1.0,0.153,0.004
08/10/2023,08:33:09,0.225,1.0,0.157,0.004
08/10/2023,08:34:09,0.229,1.0,0.161,0.004
08/10/2023,08:35:08,0.236,1.0,0.164,0.003
08/10/2023,08:36:08,0.242,1.0,0.168,0.004
08/10/2023,08:37:08,0.248,1.0,0.172,0.004
08/10/2023,08:38:08,0.250,1.0,0.177,0.005
08/10/2023,08:39:09,0.259,1.0,0.181,0.004
08/10/2023,08:40:08,0.264,1.0,0.185,0.004
08/10/2023,08:41:08,0.268,1.0,0.19,0.005
08/10/2023,08:42:08,0.274,1.0,0.194,0.004
08/10/2023,08:43:08,0.277,1.0,0.199,0.005
08/10/2023,08:44:08,0.279,1.0,0.203,0.004
08/10/2023,08:45:09,0.282,1.0,0.208,0.005
08/10/2023,08:46:08,0.285,1.0,0.213,0.005
08/10/2023,08:47:08,0.291,1.0,0.218,0.005
08/10/2023,08:48:08,0.293,1.0,0.222,0.004
08/10/2023,08:49:09,0.295,1.0,0.227,0.005
08/10/2023,08:50:09,0.295,1.0,0.232,0.005
08/10/2023,08:51:08,0.292,1.0,0.237,0.005
08/10/2023,08:52:08,0.295,1.0,0.242,0.005
08/10/2023,08:53:08,0.297,1.0,0.247,0.005
08/10/2023,08:54:08,0.298,1.0,0.252,0.005
08/10/2023,08:55:09,0.303,1.0,0.257,0.005
08/10/2023,08:56:08,0.302,1.0,0.262,0.005
08/10/2023,08:57:09,0.308,1.0,0.267,0.005
08/10/2023,08:58:08,0.314,1.0,0.272,0.005
08/10/2023,08:59:09,0.312,1.0,0.278,0.006
08/10/2023,09:00:09,0.319,1.0,0.283,0.005
08/10/2023,09:01:08,0.326,1.0,0.288,0.005
08/10/2023,09:02:09,0.322,1.0,0.294,0.006
08/10/2023,09:03:08,0.329,1.0,0.299,0.005
08/10/2023,09:04:08,0.340,1.0,0.305,0.006
08/10/2023,09:05:08,0.354,1.0,0.31,0.005
08/10/2023,09:06:08,0.362,1.0,0.316,0.006
08/10/2023,09:07:09,0.359,1.0,0.322,0.006
08/10/2023,09:08:08,0.368,1.0,0.328,0.006
08/10/2023,09:09:09,0.381,1.0,0.335,0.007
08/10/2023,09:10:08,0.383,1.0,0.341,0.006
08/10/2023,09:11:09,0.390,1.0,0.347,0.006
08/10/2023,09:12:08,0.394,1.0,0.354,0.007
08/10/2023,09:13:08,0.398,1.0,0.36,0.006
08/10/2023,09:14:09,0.405,1.0,0.367,0.007
08/10/2023,09:15:09,0.409,1.0,0.374,0.007
08/10/2023,09:16:08,0.411,1.0,0.381,0.007
08/10/2023,09:17:09,0.415,1.0,0.388,0.007
08/10/2023,09:18:09,0.420,1.0,0.395,0.007
08/10/2023,09:19:08,0.435,1.0,0.402,0.007
08/10/2023,09:20:08,0.440,1.0,0.409,0.007
08/10/2023,09:21:08,0.445,1.0,0.416,0.007
08/10/2023,09:22:08,0.445,1.0,0.424,0.008
08/10/2023,09:23:08,0.458,1.0,0.431,0.007
08/10/2023,09:24:09,0.473,1.0,0.439,0.008
08/10/2023,09:25:09,0.485,1.0,0.447,0.008
08/10/2023,09:26:08,0.489,1.0,0.455,0.008
08/10/2023,09:27:08,0.477,1.0,0.463,0.008
08/10/2023,09:28:08,0.471,1.0,0.471,0.008
08/10/2023,09:29:09,0.472,1.0,0.479,0.008
08/10/2023,09:30:08,0.468,1.0,0.487,0.008
08/10/2023,09:31:09,0.463,1.0,0.494,0.007
08/10/2023,09:32:08,0.464,1.0,0.502,0.008
08/10/2023,09:33:08,0.462,1.0,0.51,0.008
08/10/2023,09:34:08,0.462,1.0,0.518,0.008
08/10/2023,09:35:09,0.467,1.0,0.525,0.007
08/10/2023,09:36:08,0.482,1.0,0.533,0.008
08/10/2023,09:37:08,0.492,1.0,0.541,0.008
08/10/2023,09:38:09,0.494,1.0,0.55,0.009
08/10/2023,09:39:09,0.492,1.0,0.558,0.008
08/10/2023,09:40:08,0.498,1.0,0.566,0.008
08/10/2023,09:41:09,0.487,1.0,0.574,0.008
08/10/2023,09:42:08,0.483,1.0,0.583,0.009
08/10/2023,09:43:08,0.461,1.0,0.59,0.007
08/10/2023,09:44:08,0.481,1.0,0.598,0.008
08/10/2023,09:45:08,0.501,1.0,0.606,0.008
08/10/2023,09:46:09,0.480,1.0,0.615,0.009
08/10/2023,09:47:08,0.483,1.0,0.623,0.008
08/10/2023,09:48:08,0.487,1.0,0.631,0.008
08/10/2023,09:49:09,0.501,1.0,0.639,0.008
08/10/2023,09:50:08,0.506,1.0,0.647,0.008
08/10/2023,09:51:08,0.530,1.0,0.656,0.009
08/10/2023,09:52:09,0.533,1.0,0.665,0.009
08/10/2023,09:53:09,0.533,1.0,0.674,0.009
08/10/2023,09:54:08,0.528,1.0,0.682,0.008
08/10/2023,09:55:09,0.523,1.0,0.691,0.009
08/10/2023,09:56:08,0.524,1.0,0.7,0.009
08/10/2023,09:57:09,0.533,1.0,0.709,0.009
08/10/2023,09:58:09,0.522,1.0,0.718,0.009
08/10/2023,09:59:09,0.505,1.0,0.726,0.008
08/10/2023,10:00:08,0.509,1.0,0.735,0.009
08/10/2023,10:01:08,0.514,1.0,0.743,0.008
08/10/2023,10:02:08,0.509,1.0,0.752,0.009
08/10/2023,10:03:08,0.507,1.0,0.76,0.008
08/10/2023,10:04:08,0.503,1.0,0.768,0.008
08/10/2023,10:05:09,0.501,1.0,0.777,0.009
08/10/2023,10:06:09,0.503,1.0,0.785,0.008
08/10/2023,10:07:08,0.502,1.0,0.794,0.009
08/10/2023,10:08:08,0.506,1.0,0.802,0.008
08/10/2023,10:09:08,0.516,1.0,0.811,0.009